Вернуться в каталог

STARLINK-34236

АктивенСвязьVLEO
NORAD 64743·PAYLOAD·🇺🇸 United States

Запущен Jul 2, 2025 с Cape Canaveral Space Force Station

Loading…

Ближайшие Пролёты (ближайшие 24 часа)

TLE

СвежийSource: CelesTrak SupGP

Эпоха: Sep 14, 2026, 20:58 UTC

1 64743C 25144V   26257.87409722  .00027571  00000+0  81470-3 0  2572
2 64743  53.1600  19.8180 0001178  71.6246 222.8150 15.34373140    13

Отслеживайте STARLINK-34236 в реальном времени с AllMySat

Download on the App Store